Time,TemperatureF,DewpointF,PressureIn,WindDirection,WindDirectionDegrees,WindSpeedMPH,WindSpeedGustMPH,Humidity,HourlyPrecipIn,Conditions,Clouds,dailyrainin,SoftwareType,DateUTC
2013-03-25 00:36:00,35.5,25.0,30.18,NW,316,2.0,3.0,67,0.00,,,0.00,weatherlink.com 1.10,2013-03-25 07:36:00,
2013-03-25 00:51:00,35.1,25.0,30.18,NW,316,3.0,4.0,67,0.00,,,0.00,weatherlink.com 1.10,2013-03-25 07:51:00,
2013-03-25 01:06:00,34.8,26.0,30.17,NW,316,2.0,3.0,69,0.00,,,0.00,weatherlink.com 1.10,2013-03-25 08:06:00,
2013-03-25 01:21:00,34.4,25.0,30.18,NW,316,2.0,4.0,69,0.00,,,0.00,weatherlink.com 1.10,2013-03-25 08:21:00,
2013-03-25 01:36:00,34.3,25.0,30.18,NW,316,3.0,4.0,68,0.00,,,0.00,weatherlink.com 1.10,2013-03-25 08:36:00,
2013-03-25 01:51:00,34.5,25.0,30.18,NW,316,1.0,4.0,68,0.00,,,0.00,weatherlink.com 1.10,2013-03-25 08:51:00,
2013-03-25 02:06:00,34.4,25.0,30.18,NW,316,1.0,3.0,69,0.00,,,0.00,weatherlink.com 1.10,2013-03-25 09:06:00,
2013-03-25 02:21:00,34.2,25.0,30.17,NW,316,0.0,2.0,69,0.00,,,0.00,weatherlink.com 1.10,2013-03-25 09:21:00,
2013-03-25 02:36:00,34.1,25.0,30.17,NW,316,0.0,2.0,69,0.00,,,0.00,weatherlink.com 1.10,2013-03-25 09:36:00,
2013-03-25 02:51:00,33.9,25.0,30.16,NW,316,0.0,1.0,69,0.00,,,0.00,weatherlink.com 1.10,2013-03-25 09:51:00,
2013-03-25 03:06:00,33.5,25.0,30.15,NW,316,0.0,0.0,70,0.00,,,0.00,weatherlink.com 1.10,2013-03-25 10:06:00,
2013-03-25 03:21:00,33.3,24.0,30.15,NW,316,1.0,1.0,70,0.00,,,0.00,weatherlink.com 1.10,2013-03-25 10:21:00,
2013-03-25 03:36:00,33.0,25.0,30.14,NW,316,0.0,1.0,71,0.00,,,0.00,weatherlink.com 1.10,2013-03-25 10:36:00,
2013-03-25 03:51:00,33.0,25.0,30.14,NW,316,2.0,2.0,71,0.00,,,0.00,weatherlink.com 1.10,2013-03-25 10:51:00,
2013-03-25 04:06:00,32.6,24.0,30.14,NW,316,0.0,2.0,72,0.00,,,0.00,weatherlink.com 1.10,2013-03-25 11:06:00,
2013-03-25 04:21:00,32.5,24.0,30.14,NW,316,0.0,2.0,72,0.00,,,0.00,weatherlink.com 1.10,2013-03-25 11:21:00,
2013-03-25 04:36:00,32.5,24.0,30.14,NW,316,0.0,1.0,72,0.00,,,0.00,weatherlink.com 1.10,2013-03-25 11:36:00,
2013-03-25 04:51:00,32.5,25.0,30.14,NW,316,0.0,2.0,73,0.00,,,0.00,weatherlink.com 1.10,2013-03-25 11:51:00,
2013-03-25 05:06:00,32.4,25.0,30.13,NW,316,0.0,1.0,73,0.00,,,0.00,weatherlink.com 1.10,2013-03-25 12:06:00,
2013-03-25 05:21:00,32.3,25.0,30.13,NW,316,0.0,1.0,73,0.00,,,0.00,weatherlink.com 1.10,2013-03-25 12:21:00,
2013-03-25 05:36:00,32.2,25.0,30.13,NW,316,0.0,1.0,74,0.00,,,0.00,weatherlink.com 1.10,2013-03-25 12:36:00,
2013-03-25 05:51:00,32.1,25.0,30.13,NW,316,0.0,0.0,74,0.00,,,0.00,weatherlink.com 1.10,2013-03-25 12:51:00,
2013-03-25 06:06:00,31.6,25.0,30.14,NW,316,2.0,2.0,75,0.00,,,0.00,weatherlink.com 1.10,2013-03-25 13:06:00,
2013-03-25 06:22:00,31.2,25.0,30.13,NW,316,0.0,2.0,77,0.00,,,0.00,weatherlink.com 1.10,2013-03-25 13:22:00,
2013-03-25 06:36:00,30.9,24.0,30.13,NW,316,0.0,2.0,76,0.00,,,0.00,weatherlink.com 1.10,2013-03-25 13:36:00,
2013-03-25 06:52:00,30.7,24.0,30.14,NW,316,0.0,1.0,76,0.00,,,0.00,weatherlink.com 1.10,2013-03-25 13:52:00,
2013-03-25 07:07:00,30.0,24.0,30.13,NW,316,0.0,1.0,78,0.00,,,0.00,weatherlink.com 1.10,2013-03-25 14:07:00,
2013-03-25 07:22:00,29.7,24.0,30.12,NW,316,0.0,1.0,79,0.00,,,0.00,weatherlink.com 1.10,2013-03-25 14:22:00,
2013-03-25 07:37:00,30.0,24.0,30.13,NW,316,1.0,2.0,79,0.00,,,0.00,weatherlink.com 1.10,2013-03-25 14:37:00,
2013-03-25 07:52:00,31.3,25.0,30.13,NW,316,0.0,1.0,77,0.00,,,0.00,weatherlink.com 1.10,2013-03-25 14:52:00,
2013-03-25 08:22:00,32.8,24.0,30.12,NW,316,0.0,2.0,71,0.00,,,0.00,weatherlink.com 1.10,2013-03-25 15:22:00,
2013-03-25 08:37:00,33.4,25.0,30.13,NW,316,1.0,3.0,70,0.00,,,0.00,weatherlink.com 1.10,2013-03-25 15:37:00,
2013-03-25 08:52:00,33.6,24.0,30.12,NW,316,0.0,3.0,69,0.00,,,0.00,weatherlink.com 1.10,2013-03-25 15:52:00,
2013-03-25 09:07:00,34.4,24.0,30.12,NW,316,1.0,4.0,67,0.00,,,0.00,weatherlink.com 1.10,2013-03-25 16:07:00,
2013-03-25 09:22:00,35.2,24.0,30.11,NW,316,0.0,3.0,65,0.00,,,0.00,weatherlink.com 1.10,2013-03-25 16:22:00,
2013-03-25 09:37:00,36.3,25.0,30.11,NW,316,0.0,4.0,65,0.00,,,0.00,weatherlink.com 1.10,2013-03-25 16:37:00,
2013-03-25 09:52:00,36.8,25.0,30.11,NW,316,0.0,4.0,63,0.00,,,0.00,weatherlink.com 1.10,2013-03-25 16:52:00,
2013-03-25 10:07:00,37.2,26.0,30.11,NW,316,0.0,5.0,63,0.00,,,0.00,weatherlink.com 1.10,2013-03-25 17:07:00,
2013-03-25 10:22:00,38.7,26.0,30.10,NW,313,2.0,5.0,60,0.00,,,0.00,weatherlink.com 1.10,2013-03-25 17:22:00,
2013-03-25 10:37:00,39.4,26.0,30.10,NW,313,3.0,5.0,59,0.00,,,0.00,weatherlink.com 1.10,2013-03-25 17:37:00,
2013-03-25 10:52:00,39.6,26.0,30.09,NW,314,0.0,5.0,59,0.00,,,0.00,weatherlink.com 1.10,2013-03-25 17:52:00,
2013-03-25 11:07:00,41.3,26.0,30.09,NW,314,1.0,5.0,55,0.00,,,0.00,weatherlink.com 1.10,2013-03-25 18:07:00,
2013-03-25 11:37:00,43.9,27.0,30.08,NW,314,3.0,3.0,52,0.00,,,0.00,weatherlink.com 1.10,2013-03-25 18:37:00,
2013-03-25 11:52:00,43.8,27.0,30.07,NW,314,3.0,5.0,51,0.00,,,0.00,weatherlink.com 1.10,2013-03-25 18:52:00,
2013-03-25 12:07:00,44.8,27.0,30.07,NNW,329,4.0,7.0,50,0.00,,,0.00,weatherlink.com 1.10,2013-03-25 19:07:00,
2013-03-25 12:22:00,45.6,27.0,30.06,NNW,333,2.0,4.0,48,0.00,,,0.00,weatherlink.com 1.10,2013-03-25 19:22:00,
2013-03-25 12:37:00,46.1,27.0,30.05,NNW,340,2.0,8.0,48,0.00,,,0.00,weatherlink.com 1.10,2013-03-25 19:37:00,
2013-03-25 12:52:00,46.8,27.0,30.04,WNW,302,2.0,7.0,47,0.00,,,0.00,weatherlink.com 1.10,2013-03-25 19:52:00,
2013-03-25 13:07:00,46.6,28.0,30.04,NW,313,7.0,7.0,48,0.00,,,0.00,weatherlink.com 1.10,2013-03-25 20:07:00,
2013-03-25 13:22:00,46.9,28.0,30.03,NW,313,3.0,7.0,48,0.00,,,0.00,weatherlink.com 1.10,2013-03-25 20:22:00,
2013-03-25 13:37:00,47.2,28.0,30.02,NW,316,4.0,8.0,47,0.00,,,0.00,weatherlink.com 1.10,2013-03-25 20:37:00,
2013-03-25 13:52:00,47.6,28.0,30.02,NW,313,4.0,8.0,46,0.00,,,0.00,weatherlink.com 1.10,2013-03-25 20:52:00,
2013-03-25 14:07:00,47.6,28.0,30.02,NW,307,3.0,8.0,46,0.00,,,0.00,weatherlink.com 1.10,2013-03-25 21:07:00,
2013-03-25 14:22:00,48.5,29.0,30.01,NNW,333,6.0,8.0,47,0.00,,,0.00,weatherlink.com 1.10,2013-03-25 21:22:00,
2013-03-25 14:37:00,49.0,29.0,30.00,NW,312,4.0,7.0,46,0.00,,,0.00,weatherlink.com 1.10,2013-03-25 21:37:00,
2013-03-25 14:52:00,49.6,28.0,30.00,NNW,346,4.0,8.0,44,0.00,,,0.00,weatherlink.com 1.10,2013-03-25 21:52:00,
2013-03-25 15:08:00,49.8,28.0,29.99,NW,325,6.0,10.0,44,0.00,,,0.00,weatherlink.com 1.10,2013-03-25 22:08:00,
2013-03-25 15:23:00,49.3,29.0,29.99,NNW,338,4.0,9.0,46,0.00,,,0.00,weatherlink.com 1.10,2013-03-25 22:23:00,
2013-03-25 15:38:00,49.4,29.0,29.99,West,269,4.0,9.0,45,0.00,,,0.00,weatherlink.com 1.10,2013-03-25 22:38:00,
2013-03-25 15:53:00,49.2,29.0,29.98,NNW,327,5.0,9.0,45,0.00,,,0.00,weatherlink.com 1.10,2013-03-25 22:53:00,
2013-03-25 16:08:00,49.2,29.0,29.99,NW,306,5.0,9.0,45,0.00,,,0.00,weatherlink.com 1.10,2013-03-25 23:08:00,
2013-03-25 16:23:00,49.1,29.0,29.98,WNW,297,4.0,9.0,46,0.00,,,0.00,weatherlink.com 1.10,2013-03-25 23:23:00,
2013-03-25 16:38:00,48.9,29.0,29.98,NW,313,5.0,9.0,46,0.00,,,0.00,weatherlink.com 1.10,2013-03-25 23:38:00,
2013-03-25 16:53:00,48.7,29.0,29.98,NW,321,3.0,9.0,46,0.00,,,0.00,weatherlink.com 1.10,2013-03-25 23:53:00,
2013-03-25 17:08:00,48.0,28.0,29.98,NNW,344,2.0,9.0,47,0.00,,,0.00,weatherlink.com 1.10,2013-03-26 00:08:00,
2013-03-25 17:23:00,47.7,29.0,29.97,NW,315,4.0,8.0,48,0.00,,,0.00,weatherlink.com 1.10,2013-03-26 00:23:00,
2013-03-25 17:38:00,47.6,29.0,29.97,NW,306,4.0,8.0,48,0.00,,,0.00,weatherlink.com 1.10,2013-03-26 00:38:00,
2013-03-25 17:53:00,47.4,29.0,29.97,NNW,343,6.0,9.0,49,0.00,,,0.00,weatherlink.com 1.10,2013-03-26 00:53:00,
2013-03-25 18:08:00,47.0,29.0,29.97,NW,306,7.0,8.0,50,0.00,,,0.00,weatherlink.com 1.10,2013-03-26 01:08:00,
2013-03-25 18:23:00,46.7,29.0,29.97,NNW,333,3.0,8.0,51,0.00,,,0.00,weatherlink.com 1.10,2013-03-26 01:23:00,
2013-03-25 18:38:00,46.4,30.0,29.97,NW,317,7.0,8.0,53,0.00,,,0.00,weatherlink.com 1.10,2013-03-26 01:38:00,
2013-03-25 18:53:00,46.2,30.0,29.96,NNW,329,3.0,8.0,54,0.00,,,0.00,weatherlink.com 1.10,2013-03-26 01:53:00,
2013-03-25 19:08:00,45.8,30.0,29.96,NW,325,3.0,6.0,54,0.00,,,0.00,weatherlink.com 1.10,2013-03-26 02:08:00,
2013-03-25 19:23:00,45.3,30.0,29.97,NW,325,4.0,5.0,56,0.00,,,0.00,weatherlink.com 1.10,2013-03-26 02:23:00,
2013-03-25 19:38:00,45.0,30.0,29.98,NW,325,1.0,6.0,56,0.00,,,0.00,weatherlink.com 1.10,2013-03-26 02:38:00,
2013-03-25 19:53:00,44.7,30.0,29.97,NW,325,5.0,6.0,57,0.00,,,0.00,weatherlink.com 1.10,2013-03-26 02:53:00,
2013-03-25 20:08:00,44.3,30.0,29.97,NW,325,5.0,7.0,57,0.00,,,0.00,weatherlink.com 1.10,2013-03-26 03:08:00,
2013-03-25 20:23:00,44.0,29.0,29.97,NW,317,4.0,7.0,57,0.00,,,0.00,weatherlink.com 1.10,2013-03-26 03:23:00,
2013-03-25 20:38:00,43.7,30.0,29.98,NW,321,3.0,6.0,58,0.00,,,0.00,weatherlink.com 1.10,2013-03-26 03:38:00,
2013-03-25 20:53:00,43.3,30.0,29.98,NW,318,5.0,6.0,59,0.00,,,0.00,weatherlink.com 1.10,2013-03-26 03:53:00,
2013-03-25 21:09:00,42.9,29.0,29.99,WNW,301,2.0,5.0,59,0.00,,,0.00,weatherlink.com 1.10,2013-03-26 04:09:00,
2013-03-25 21:23:00,42.6,29.0,30.00,WNW,301,2.0,5.0,60,0.00,,,0.00,weatherlink.com 1.10,2013-03-26 04:23:00,
2013-03-25 21:38:00,42.4,29.0,30.00,WNW,301,1.0,6.0,60,0.00,,,0.00,weatherlink.com 1.10,2013-03-26 04:38:00,
2013-03-25 21:53:00,42.2,29.0,30.00,NW,304,1.0,6.0,60,0.00,,,0.00,weatherlink.com 1.10,2013-03-26 04:53:00,
2013-03-25 22:08:00,42.1,29.0,30.00,WNW,301,3.0,6.0,61,0.00,,,0.00,weatherlink.com 1.10,2013-03-26 05:08:00,
2013-03-25 22:23:00,41.9,29.0,30.01,WNW,294,4.0,6.0,60,0.00,,,0.00,weatherlink.com 1.10,2013-03-26 05:23:00,
2013-03-25 22:38:00,41.7,29.0,30.01,WNW,294,3.0,4.0,61,0.00,,,0.00,weatherlink.com 1.10,2013-03-26 05:38:00,
2013-03-25 22:53:00,41.5,29.0,30.01,WNW,294,3.0,5.0,61,0.00,,,0.00,weatherlink.com 1.10,2013-03-26 05:53:00,
2013-03-25 23:08:00,41.4,29.0,30.01,WNW,286,3.0,7.0,61,0.00,,,0.00,weatherlink.com 1.10,2013-03-26 06:08:00,
2013-03-25 23:23:00,41.2,29.0,30.01,West,276,4.0,7.0,61,0.00,,,0.00,weatherlink.com 1.10,2013-03-26 06:23:00,
2013-03-25 23:38:00,41.0,29.0,30.01,WNW,288,3.0,11.0,62,0.00,,,0.00,weatherlink.com 1.10,2013-03-26 06:38:00,
2013-03-25 23:53:00,40.5,29.0,30.01,NW,304,3.0,7.0,65,0.00,,,0.00,weatherlink.com 1.10,2013-03-26 06:53:00,